Wetterdaten: Sonntag, 03.01.2016
Datum Zeit Auen-Temp. Temp gefhlt Luftfeuchte Luftdruck Regen Wind Richtung Richtung Taupunkt Windben
03.01.2016 00:00 0,5 C 0,1 C 95 % 1014,8 hPa 0,0 mm 4,9 km/h (1 Bft) W 270 -0,2 C 3,9 km/h (1 Bft)
03.01.2016 00:05 0,5 C 0,0 C 95 % 1014,8 hPa 0,7 mm 6,0 km/h (2 Bft) W 270 -0,2 C 11,9 km/h (2 Bft)
03.01.2016 00:10 0,6 C -0,2 C 95 % 1014,8 hPa 0,0 mm 7,8 km/h (2 Bft) W 270 -0,1 C 18,9 km/h (3 Bft)
03.01.2016 00:15 0,6 C -0,3 C 95 % 1014,7 hPa 0,0 mm 8,8 km/h (2 Bft) W-SW 247 -0,1 C 9,8 km/h (2 Bft)
03.01.2016 00:20 0,7 C -0,1 C 95 % 1014,7 hPa 0,0 mm 7,8 km/h (2 Bft) W-SW 247 -0,0 C 23,3 km/h (4 Bft)
03.01.2016 00:25 0,7 C -0,1 C 95 % 1014,7 hPa 0,0 mm 7,8 km/h (2 Bft) W-NW 292 -0,0 C 13,7 km/h (3 Bft)
03.01.2016 00:30 0,7 C -0,2 C 95 % 1014,7 hPa 0,7 mm 8,3 km/h (2 Bft) W-SW 247 -0,0 C 9,6 km/h (2 Bft)
03.01.2016 00:35 0,7 C -0,1 C 96 % 1014,6 hPa 0,0 mm 8,0 km/h (2 Bft) SW 225 0,1 C 5,4 km/h (1 Bft)
03.01.2016 00:40 0,8 C 0,1 C 96 % 1014,6 hPa 0,0 mm 7,5 km/h (2 Bft) SW 225 0,2 C 9,3 km/h (2 Bft)
03.01.2016 00:45 0,8 C 0,2 C 95 % 1014,6 hPa 0,0 mm 6,5 km/h (2 Bft) W-SW 247 0,1 C 3,4 km/h (1 Bft)
03.01.2016 00:50 0,8 C 0,2 C 96 % 1014,6 hPa 0,7 mm 6,0 km/h (2 Bft) W-SW 247 0,2 C 8,0 km/h (2 Bft)
03.01.2016 00:55 0,8 C 0,2 C 96 % 1014,6 hPa 0,0 mm 6,0 km/h (2 Bft) W 270 0,2 C 9,3 km/h (2 Bft)
03.01.2016 01:00 0,9 C 0,2 C 96 % 1014,6 hPa 0,0 mm 6,5 km/h (2 Bft) NW 315 0,3 C 9,1 km/h (2 Bft)
03.01.2016 01:05 0,9 C 0,3 C 96 % 1014,6 hPa 0,0 mm 6,5 km/h (2 Bft) W-NW 292 0,3 C 4,4 km/h (1 Bft)
03.01.2016 01:10 0,9 C 0,3 C 96 % 1014,6 hPa 0,7 mm 6,5 km/h (2 Bft) W-NW 292 0,3 C 11,1 km/h (2 Bft)
03.01.2016 01:15 0,9 C 0,2 C 96 % 1014,5 hPa 0,0 mm 7,0 km/h (2 Bft) W 270 0,3 C 7,0 km/h (2 Bft)
03.01.2016 01:20 0,9 C 0,3 C 96 % 1014,5 hPa 0,0 mm 6,2 km/h (2 Bft) W 270 0,3 C 4,7 km/h (1 Bft)
03.01.2016 01:25 0,9 C 0,4 C 96 % 1014,5 hPa 0,0 mm 5,7 km/h (1 Bft) W 270 0,3 C 11,1 km/h (2 Bft)
03.01.2016 01:30 0,9 C 0,3 C 96 % 1014,5 hPa 0,7 mm 6,0 km/h (2 Bft) W 270 0,3 C 5,2 km/h (1 Bft)
03.01.2016 01:35 0,9 C 0,3 C 96 % 1014,5 hPa 0,0 mm 6,5 km/h (2 Bft) W 270 0,3 C 8,0 km/h (2 Bft)
03.01.2016 01:40 0,9 C 0,4 C 96 % 1014,5 hPa 0,0 mm 5,7 km/h (1 Bft) W-SW 247 0,3 C 8,8 km/h (2 Bft)
03.01.2016 01:45 0,9 C 0,2 C 96 % 1014,5 hPa 0,0 mm 6,7 km/h (2 Bft) W-NW 292 0,3 C 16,1 km/h (3 Bft)
03.01.2016 01:50 0,9 C 0,3 C 96 % 1014,5 hPa 0,0 mm 6,5 km/h (2 Bft) W-SW 247 0,3 C 5,4 km/h (1 Bft)
03.01.2016 01:55 0,8 C 0,4 C 96 % 1014,4 hPa 0,7 mm 4,9 km/h (1 Bft) W-NW 292 0,2 C 9,3 km/h (2 Bft)
03.01.2016 02:00 0,8 C 0,6 C 95 % 1014,4 hPa 0,0 mm 3,9 km/h (1 Bft) W-NW 292 0,1 C 5,2 km/h (1 Bft)
03.01.2016 02:05 0,9 C 0,4 C 95 % 1014,4 hPa 0,0 mm 5,4 km/h (1 Bft) W-SW 247 0,2 C 11,9 km/h (2 Bft)
03.01.2016 02:10 0,9 C 0,3 C 95 % 1014,4 hPa 0,0 mm 6,0 km/h (2 Bft) W-SW 247 0,2 C 4,1 km/h (1 Bft)
03.01.2016 02:15 0,9 C 0,3 C 95 % 1014,5 hPa 0,0 mm 6,5 km/h (2 Bft) SW 225 0,2 C 11,4 km/h (2 Bft)
03.01.2016 02:20 0,9 C 0,2 C 95 % 1014,5 hPa 0,7 mm 7,3 km/h (2 Bft) W 270 0,2 C 23,6 km/h (4 Bft)
03.01.2016 02:25 0,9 C 0,2 C 95 % 1014,5 hPa 0,0 mm 7,3 km/h (2 Bft) W-SW 247 0,2 C 6,0 km/h (2 Bft)
03.01.2016 02:30 1,0 C 0,3 C 95 % 1014,5 hPa 0,0 mm 7,0 km/h (2 Bft) SW 225 0,3 C 6,0 km/h (2 Bft)
03.01.2016 02:35 1,0 C 0,3 C 95 % 1014,5 hPa 0,0 mm 7,3 km/h (2 Bft) S 180 0,3 C 8,5 km/h (2 Bft)
03.01.2016 02:40 1,0 C 0,3 C 95 % 1014,5 hPa 0,7 mm 7,3 km/h (2 Bft) W-NW 292 0,3 C 8,8 km/h (2 Bft)
03.01.2016 02:45 1,1 C 0,4 C 95 % 1014,5 hPa 0,0 mm 7,3 km/h (2 Bft) SW 225 0,4 C 11,1 km/h (2 Bft)
03.01.2016 02:50 1,1 C 0,3 C 95 % 1014,5 hPa 0,0 mm 8,0 km/h (2 Bft) S 180 0,4 C 12,2 km/h (2 Bft)
03.01.2016 02:55 1,1 C 0,4 C 95 % 1014,7 hPa 0,0 mm 7,5 km/h (2 Bft) W 270 0,4 C 7,3 km/h (2 Bft)
03.01.2016 03:00 1,1 C 0,4 C 95 % 1014,7 hPa 0,0 mm 7,5 km/h (2 Bft) W-SW 247 0,4 C 8,0 km/h (2 Bft)
03.01.2016 03:05 1,1 C 0,4 C 95 % 1014,7 hPa 0,0 mm 7,8 km/h (2 Bft) W-SW 247 0,4 C 8,8 km/h (2 Bft)
03.01.2016 03:10 1,1 C 0,5 C 95 % 1014,7 hPa 0,7 mm 7,3 km/h (2 Bft) W-SW 247 0,4 C 5,4 km/h (1 Bft)
03.01.2016 03:15 1,0 C 0,4 C 95 % 1014,7 hPa 0,0 mm 6,5 km/h (2 Bft) S 180 0,3 C 9,1 km/h (2 Bft)
03.01.2016 03:20 1,1 C 0,5 C 95 % 1014,7 hPa 0,0 mm 7,0 km/h (2 Bft) W-SW 247 0,4 C 11,7 km/h (2 Bft)
03.01.2016 03:25 1,1 C 0,4 C 95 % 1014,7 hPa 0,0 mm 8,3 km/h (2 Bft) SW 225 0,4 C 13,7 km/h (3 Bft)
03.01.2016 03:30 1,1 C 0,3 C 95 % 1014,7 hPa 0,0 mm 9,3 km/h (2 Bft) SW 225 0,4 C 13,7 km/h (3 Bft)
03.01.2016 03:35 1,2 C 0,4 C 95 % 1014,5 hPa 0,0 mm 9,1 km/h (2 Bft) W 270 0,5 C 6,2 km/h (2 Bft)
03.01.2016 03:40 1,2 C 0,4 C 95 % 1014,5 hPa 0,7 mm 8,5 km/h (2 Bft) W-SW 247 0,5 C 6,2 km/h (2 Bft)
03.01.2016 03:45 1,2 C 0,5 C 95 % 1014,5 hPa 0,0 mm 7,8 km/h (2 Bft) SW 225 0,5 C 10,9 km/h (2 Bft)
03.01.2016 03:50 1,2 C 0,6 C 95 % 1014,5 hPa 0,0 mm 7,5 km/h (2 Bft) W-SW 247 0,5 C 9,8 km/h (2 Bft)
03.01.2016 03:55 1,2 C 0,7 C 95 % 1014,7 hPa 0,0 mm 6,7 km/h (2 Bft) W-SW 247 0,5 C 5,4 km/h (1 Bft)
03.01.2016 04:00 1,2 C 0,9 C 95 % 1014,7 hPa 0,0 mm 4,7 km/h (1 Bft) SW 225 0,5 C 4,7 km/h (1 Bft)
03.01.2016 04:05 1,2 C 1,0 C 95 % 1014,7 hPa 0,0 mm 3,4 km/h (1 Bft) W-SW 247 0,5 C 3,6 km/h (1 Bft)
03.01.2016 04:10 1,2 C 1,0 C 95 % 1014,7 hPa 0,0 mm 3,1 km/h (1 Bft) W 270 0,5 C 0,0 km/h (0 Bft)
03.01.2016 04:15 1,1 C 1,0 C 95 % 1014,5 hPa 0,0 mm 2,8 km/h (1 Bft) W 270 0,4 C 4,9 km/h (1 Bft)
03.01.2016 04:20 1,2 C 0,8 C 95 % 1014,5 hPa 0,0 mm 5,4 km/h (1 Bft) W-SW 247 0,5 C 6,0 km/h (2 Bft)
03.01.2016 04:25 1,3 C 0,7 C 95 % 1014,5 hPa 0,0 mm 7,5 km/h (2 Bft) SW 225 0,6 C 11,1 km/h (2 Bft)
03.01.2016 04:30 1,3 C 0,6 C 95 % 1014,5 hPa 0,0 mm 8,5 km/h (2 Bft) W-SW 247 0,6 C 11,9 km/h (2 Bft)
03.01.2016 04:33 1,3 C 0,6 C 95 % 1014,5 hPa 0,0 mm 8,8 km/h (2 Bft) S-SW 202 0,6 C 6,5 km/h (2 Bft)
03.01.2016 04:35 1,3 C 0,6 C 95 % 1014,5 hPa 0,0 mm 8,8 km/h (2 Bft) S-SW 202 0,6 C 6,5 km/h (2 Bft)
03.01.2016 04:40 1,3 C 0,6 C 95 % 1014,5 hPa 0,0 mm 8,3 km/h (2 Bft) W-SW 247 0,6 C 4,7 km/h (1 Bft)
03.01.2016 04:45 1,3 C 0,7 C 95 % 1014,5 hPa 0,0 mm 7,5 km/h (2 Bft) W-SW 247 0,6 C 6,2 km/h (2 Bft)
03.01.2016 04:50 1,3 C 0,8 C 95 % 1014,5 hPa 0,0 mm 6,2 km/h (2 Bft) W 270 0,6 C 4,7 km/h (1 Bft)
03.01.2016 04:55 1,2 C 0,9 C 95 % 1014,4 hPa 0,0 mm 4,9 km/h (1 Bft) SW 225 0,5 C 9,1 km/h (2 Bft)
03.01.2016 05:00 1,2 C 1,0 C 95 % 1014,4 hPa 0,0 mm 4,1 km/h (1 Bft) W-SW 247 0,5 C 6,2 km/h (2 Bft)
03.01.2016 05:05 1,2 C 0,9 C 95 % 1014,4 hPa 0,0 mm 5,2 km/h (1 Bft) W-SW 247 0,5 C 10,1 km/h (2 Bft)
03.01.2016 05:10 1,2 C 0,9 C 95 % 1014,4 hPa 0,0 mm 5,2 km/h (1 Bft) W-SW 247 0,5 C 7,8 km/h (2 Bft)
03.01.2016 05:15 1,2 C 0,8 C 95 % 1014,2 hPa 0,7 mm 5,4 km/h (1 Bft) W-SW 247 0,5 C 8,3 km/h (2 Bft)
03.01.2016 05:20 1,1 C 0,7 C 95 % 1014,2 hPa 0,0 mm 6,0 km/h (2 Bft) W-SW 247 0,4 C 8,5 km/h (2 Bft)
03.01.2016 05:25 1,1 C 0,8 C 95 % 1014,2 hPa 0,0 mm 5,2 km/h (1 Bft) W-SW 247 0,4 C 5,4 km/h (1 Bft)
03.01.2016 05:30 1,1 C 0,8 C 95 % 1014,2 hPa 0,0 mm 4,7 km/h (1 Bft) W-SW 247 0,4 C 4,9 km/h (1 Bft)
03.01.2016 05:35 1,0 C 0,7 C 95 % 1014,2 hPa 0,0 mm 4,4 km/h (1 Bft) S 180 0,3 C 6,7 km/h (2 Bft)
03.01.2016 05:40 0,9 C 0,7 C 95 % 1014,2 hPa 0,7 mm 3,9 km/h (1 Bft) W-SW 247 0,2 C 0,0 km/h (0 Bft)
03.01.2016 05:45 0,9 C 0,7 C 95 % 1014,2 hPa 0,0 mm 3,9 km/h (1 Bft) S-SW 202 0,2 C 7,0 km/h (2 Bft)
03.01.2016 05:50 0,9 C 0,7 C 95 % 1014,2 hPa 0,0 mm 4,1 km/h (1 Bft) S-SO 157 0,2 C 4,4 km/h (1 Bft)
03.01.2016 05:55 0,9 C 0,5 C 95 % 1014,0 hPa 0,0 mm 4,9 km/h (1 Bft) SW 225 0,2 C 7,5 km/h (2 Bft)
03.01.2016 06:00 0,9 C 0,4 C 95 % 1014,0 hPa 0,0 mm 6,2 km/h (2 Bft) S 180 0,2 C 6,0 km/h (2 Bft)
03.01.2016 06:05 0,8 C 0,2 C 95 % 1014,0 hPa 0,0 mm 6,5 km/h (2 Bft) SW 225 0,1 C 4,4 km/h (1 Bft)
03.01.2016 06:10 0,7 C 0,5 C 95 % 1014,0 hPa 0,7 mm 3,1 km/h (1 Bft) SW 225 -0,0 C 0,0 km/h (0 Bft)
03.01.2016 06:15 0,7 C 0,5 C 95 % 1014,0 hPa 0,0 mm 1,3 km/h (1 Bft) W-SW 247 -0,0 C 0,0 km/h (0 Bft)
03.01.2016 06:20 0,7 C 0,5 C 95 % 1014,0 hPa 0,0 mm 0,0 km/h (0 Bft) S-SW 202 -0,0 C 0,0 km/h (0 Bft)
03.01.2016 06:25 0,7 C 0,5 C 95 % 1014,0 hPa 0,0 mm 0,0 km/h (0 Bft) W-SW 247 -0,0 C 0,0 km/h (0 Bft)
03.01.2016 06:30 0,7 C 0,5 C 95 % 1014,0 hPa 0,0 mm 0,0 km/h (0 Bft) SW 225 -0,0 C 0,0 km/h (0 Bft)
03.01.2016 06:35 0,7 C 0,5 C 95 % 1013,8 hPa 0,0 mm 0,3 km/h (0 Bft) SW 225 -0,0 C 0,0 km/h (0 Bft)
03.01.2016 06:40 0,8 C 0,6 C 95 % 1013,8 hPa 0,0 mm 1,8 km/h (1 Bft) SW 225 0,1 C 3,6 km/h (1 Bft)
03.01.2016 06:45 0,8 C 0,6 C 95 % 1013,8 hPa 0,0 mm 2,6 km/h (1 Bft) SW 225 0,1 C 4,9 km/h (1 Bft)
03.01.2016 06:50 0,9 C 0,7 C 95 % 1013,8 hPa 0,0 mm 3,1 km/h (1 Bft) SW 225 0,2 C 3,1 km/h (1 Bft)
03.01.2016 06:55 0,9 C 0,7 C 95 % 1013,5 hPa 0,7 mm 2,1 km/h (1 Bft) W-SW 247 0,2 C 4,1 km/h (1 Bft)
03.01.2016 07:00 1,1 C 0,9 C 95 % 1013,5 hPa 0,0 mm 2,8 km/h (1 Bft) W-SW 247 0,4 C 4,1 km/h (1 Bft)
03.01.2016 07:05 1,1 C 0,9 C 95 % 1013,5 hPa 0,0 mm 3,9 km/h (1 Bft) W-SW 247 0,4 C 5,4 km/h (1 Bft)
03.01.2016 07:10 1,1 C 1,0 C 95 % 1013,5 hPa 0,0 mm 3,6 km/h (1 Bft) W-SW 247 0,4 C 4,1 km/h (1 Bft)
03.01.2016 07:15 1,2 C 1,0 C 95 % 1013,9 hPa 0,0 mm 4,4 km/h (1 Bft) SW 225 0,5 C 4,9 km/h (1 Bft)
03.01.2016 07:20 1,1 C 1,0 C 95 % 1013,9 hPa 0,0 mm 3,6 km/h (1 Bft) W-SW 247 0,4 C 2,8 km/h (1 Bft)
03.01.2016 07:25 1,1 C 1,0 C 95 % 1013,9 hPa 0,0 mm 2,6 km/h (1 Bft) W-NW 292 0,4 C 4,4 km/h (1 Bft)
03.01.2016 07:30 1,1 C 1,0 C 95 % 1013,9 hPa 0,0 mm 2,6 km/h (1 Bft) W 270 0,4 C 3,1 km/h (1 Bft)
03.01.2016 07:35 1,1 C 1,0 C 95 % 1013,8 hPa 0,0 mm 1,8 km/h (1 Bft) W 270 0,4 C 0,0 km/h (0 Bft)
03.01.2016 07:40 1,1 C 0,9 C 95 % 1013,8 hPa 0,0 mm 1,8 km/h (1 Bft) W-SW 247 0,4 C 5,2 km/h (1 Bft)
03.01.2016 07:45 1,1 C 1,0 C 95 % 1013,8 hPa 0,0 mm 2,6 km/h (1 Bft) W-SW 247 0,4 C 4,9 km/h (1 Bft)
03.01.2016 07:50 1,2 C 1,0 C 95 % 1013,8 hPa 0,7 mm 3,9 km/h (1 Bft) SW 225 0,5 C 5,7 km/h (1 Bft)
03.01.2016 07:55 1,2 C 1,0 C 95 % 1013,5 hPa 0,0 mm 4,1 km/h (1 Bft) W-SW 247 0,5 C 14,2 km/h (3 Bft)
03.01.2016 08:00 1,2 C 1,0 C 95 % 1013,5 hPa 0,0 mm 3,4 km/h (1 Bft) W-SW 247 0,5 C 0,0 km/h (0 Bft)
03.01.2016 08:05 1,2 C 1,0 C 95 % 1013,5 hPa 0,0 mm 4,1 km/h (1 Bft) W-SW 247 0,5 C 3,9 km/h (1 Bft)
03.01.2016 08:10 1,3 C 1,1 C 95 % 1013,5 hPa 0,0 mm 3,6 km/h (1 Bft) W 270 0,6 C 3,1 km/h (1 Bft)
03.01.2016 08:15 1,2 C 1,1 C 95 % 1013,6 hPa 0,0 mm 2,8 km/h (1 Bft) S 180 0,5 C 0,0 km/h (0 Bft)
03.01.2016 08:20 1,3 C 1,1 C 95 % 1013,6 hPa 0,0 mm 2,6 km/h (1 Bft) W-SW 247 0,6 C 2,6 km/h (1 Bft)
03.01.2016 08:25 1,3 C 1,1 C 95 % 1013,6 hPa 0,0 mm 3,1 km/h (1 Bft) NW 315 0,6 C 5,7 km/h (1 Bft)
03.01.2016 08:30 1,3 C 1,1 C 95 % 1013,6 hPa 0,0 mm 3,4 km/h (1 Bft) SW 225 0,6 C 6,2 km/h (2 Bft)
03.01.2016 08:35 1,3 C 1,1 C 95 % 1013,4 hPa 0,0 mm 4,1 km/h (1 Bft) W 270 0,6 C 6,0 km/h (2 Bft)
03.01.2016 08:40 1,4 C 1,2 C 95 % 1013,4 hPa 0,0 mm 3,9 km/h (1 Bft) SW 225 0,7 C 8,5 km/h (2 Bft)
03.01.2016 08:45 1,4 C 1,2 C 95 % 1013,4 hPa 0,0 mm 4,1 km/h (1 Bft) W 270 0,7 C 3,6 km/h (1 Bft)
03.01.2016 08:50 1,4 C 1,2 C 95 % 1013,4 hPa 0,0 mm 4,7 km/h (1 Bft) SW 225 0,7 C 6,2 km/h (2 Bft)
03.01.2016 08:55 1,5 C 1,3 C 95 % 1013,5 hPa 0,0 mm 4,1 km/h (1 Bft) W-SW 247 0,8 C 6,5 km/h (2 Bft)
03.01.2016 09:00 1,5 C 1,3 C 95 % 1013,5 hPa 0,7 mm 4,1 km/h (1 Bft) W-SW 247 0,8 C 5,2 km/h (1 Bft)
03.01.2016 09:05 1,5 C 1,3 C 95 % 1013,5 hPa 0,0 mm 4,4 km/h (1 Bft) W 270 0,8 C 4,7 km/h (1 Bft)
03.01.2016 09:10 1,5 C 1,3 C 95 % 1013,5 hPa 0,0 mm 4,4 km/h (1 Bft) W 270 0,8 C 4,1 km/h (1 Bft)
03.01.2016 09:15 1,5 C 1,4 C 95 % 1013,5 hPa 0,0 mm 4,1 km/h (1 Bft) W-SW 247 0,8 C 8,5 km/h (2 Bft)
03.01.2016 09:20 1,6 C 1,5 C 95 % 1013,5 hPa 0,0 mm 3,6 km/h (1 Bft) W 270 0,9 C 4,1 km/h (1 Bft)
03.01.2016 09:25 1,6 C 1,5 C 95 % 1013,5 hPa 0,0 mm 4,1 km/h (1 Bft) S 180 0,9 C 7,0 km/h (2 Bft)
03.01.2016 09:30 1,7 C 1,5 C 95 % 1013,5 hPa 0,0 mm 4,4 km/h (1 Bft) W-SW 247 1,0 C 4,1 km/h (1 Bft)
03.01.2016 09:35 1,8 C 1,7 C 95 % 1013,2 hPa 0,0 mm 4,4 km/h (1 Bft) SW 225 1,1 C 3,9 km/h (1 Bft)
03.01.2016 09:40 1,9 C 1,8 C 95 % 1013,2 hPa 0,0 mm 4,4 km/h (1 Bft) W 270 1,2 C 4,9 km/h (1 Bft)
03.01.2016 09:45 1,9 C 1,8 C 95 % 1013,2 hPa 0,0 mm 3,4 km/h (1 Bft) SW 225 1,2 C 0,0 km/h (0 Bft)
03.01.2016 09:50 2,0 C 2,0 C 95 % 1013,2 hPa 0,0 mm 3,1 km/h (1 Bft) W-SW 247 1,3 C 3,9 km/h (1 Bft)
03.01.2016 09:55 2,0 C 2,0 C 89 % 1013,2 hPa 0,0 mm 3,6 km/h (1 Bft) SW 225 0,4 C 7,3 km/h (2 Bft)
03.01.2016 10:00 2,0 C 2,0 C 89 % 1013,2 hPa 0,0 mm 4,1 km/h (1 Bft) W 270 0,4 C 6,5 km/h (2 Bft)
03.01.2016 10:05 2,1 C 2,0 C 95 % 1013,2 hPa 0,0 mm 4,4 km/h (1 Bft) W-SW 247 1,4 C 10,9 km/h (2 Bft)
03.01.2016 10:10 2,2 C 1,9 C 95 % 1013,2 hPa 0,7 mm 5,2 km/h (1 Bft) W-SW 247 1,5 C 3,9 km/h (1 Bft)
03.01.2016 10:15 2,2 C 2,1 C 89 % 1013,1 hPa 0,0 mm 5,2 km/h (1 Bft) S-SW 202 0,6 C 7,0 km/h (2 Bft)
03.01.2016 10:20 2,3 C 2,4 C 89 % 1013,1 hPa 0,0 mm 3,6 km/h (1 Bft) SW 225 0,7 C 0,0 km/h (0 Bft)
03.01.2016 10:25 2,3 C 2,4 C 89 % 1013,1 hPa 0,0 mm 2,3 km/h (1 Bft) W-SW 247 0,7 C 3,6 km/h (1 Bft)
03.01.2016 10:30 2,3 C 2,4 C 89 % 1013,1 hPa 0,0 mm 1,0 km/h (0 Bft) S 180 0,7 C 0,0 km/h (0 Bft)
03.01.2016 10:34 2,3 C 2,4 C 88 % 1012,8 hPa 0,0 mm 2,1 km/h (1 Bft) SW 225 0,5 C 4,4 km/h (1 Bft)
03.01.2016 10:35 2,3 C 2,4 C 88 % 1012,8 hPa 0,0 mm 2,1 km/h (1 Bft) SW 225 0,5 C 4,4 km/h (1 Bft)
03.01.2016 10:40 2,3 C 2,5 C 88 % 1012,8 hPa 0,0 mm 2,3 km/h (1 Bft) W-SW 247 0,5 C 4,7 km/h (1 Bft)
03.01.2016 10:45 2,5 C 2,6 C 88 % 1012,8 hPa 0,0 mm 2,3 km/h (1 Bft) W-SW 247 0,7 C 3,9 km/h (1 Bft)
03.01.2016 10:50 2,7 C 2,9 C 88 % 1012,8 hPa 0,0 mm 2,8 km/h (1 Bft) W-SW 247 0,9 C 3,6 km/h (1 Bft)
03.01.2016 10:55 2,7 C 3,0 C 88 % 1013,0 hPa 0,0 mm 3,4 km/h (1 Bft) W-SW 247 0,9 C 5,4 km/h (1 Bft)
03.01.2016 11:00 2,8 C 3,1 C 88 % 1013,0 hPa 0,0 mm 3,6 km/h (1 Bft) SW 225 1,0 C 7,8 km/h (2 Bft)
03.01.2016 11:05 2,9 C 3,1 C 88 % 1013,0 hPa 0,0 mm 3,4 km/h (1 Bft) W 270 1,1 C 0,0 km/h (0 Bft)
03.01.2016 11:10 2,9 C 3,1 C 88 % 1013,0 hPa 0,0 mm 4,4 km/h (1 Bft) W 270 1,1 C 5,2 km/h (1 Bft)
03.01.2016 11:15 3,0 C 3,0 C 88 % 1012,7 hPa 0,0 mm 5,4 km/h (1 Bft) SW 225 1,2 C 9,8 km/h (2 Bft)
03.01.2016 11:20 3,1 C 3,1 C 88 % 1012,7 hPa 0,0 mm 6,0 km/h (2 Bft) W-SW 247 1,3 C 9,1 km/h (2 Bft)
03.01.2016 11:25 3,1 C 3,2 C 88 % 1012,7 hPa 0,0 mm 6,0 km/h (2 Bft) S 180 1,3 C 4,7 km/h (1 Bft)
03.01.2016 11:30 3,3 C 3,7 C 87 % 1012,7 hPa 0,0 mm 4,1 km/h (1 Bft) W-SW 247 1,3 C 3,1 km/h (1 Bft)
03.01.2016 11:35 3,6 C 4,0 C 87 % 1012,2 hPa 0,0 mm 2,1 km/h (1 Bft) SW 225 1,6 C 0,0 km/h (0 Bft)
03.01.2016 11:40 3,7 C 4,3 C 87 % 1012,2 hPa 0,0 mm 1,3 km/h (1 Bft) W-SW 247 1,7 C 0,0 km/h (0 Bft)
03.01.2016 11:45 3,7 C 4,4 C 87 % 1012,2 hPa 0,0 mm 1,3 km/h (1 Bft) W-NW 292 1,7 C 3,1 km/h (1 Bft)
03.01.2016 11:50 3,8 C 4,5 C 87 % 1012,2 hPa 0,0 mm 0,8 km/h (0 Bft) N-NW 337 1,8 C 0,0 km/h (0 Bft)
03.01.2016 11:55 3,9 C 4,6 C 87 % 1012,1 hPa 0,0 mm 1,8 km/h (1 Bft) NW 315 1,9 C 0,0 km/h (0 Bft)
03.01.2016 12:00 4,0 C 4,7 C 87 % 1012,1 hPa 0,0 mm 2,1 km/h (1 Bft) NW 315 2,0 C 0,0 km/h (0 Bft)
03.01.2016 12:05 4,1 C 5,1 C 87 % 1012,1 hPa 0,0 mm 1,0 km/h (0 Bft) S 180 2,1 C 0,0 km/h (0 Bft)
03.01.2016 12:10 4,2 C 5,6 C 87 % 1012,1 hPa 0,0 mm 0,0 km/h (0 Bft) W-SW 247 2,2 C 0,0 km/h (0 Bft)
03.01.2016 12:15 4,4 C 6,1 C 87 % 1011,6 hPa 0,0 mm 0,0 km/h (0 Bft) S-SW 202 2,4 C 0,0 km/h (0 Bft)
03.01.2016 12:20 4,2 C 6,3 C 86 % 1011,6 hPa 0,0 mm 0,5 km/h (0 Bft) W-SW 247 2,1 C 0,0 km/h (0 Bft)
03.01.2016 12:25 4,4 C 6,4 C 86 % 1011,6 hPa 0,0 mm 0,5 km/h (0 Bft) SO 135 2,3 C 0,0 km/h (0 Bft)
03.01.2016 12:30 4,2 C 6,4 C 86 % 1011,6 hPa 0,0 mm 0,0 km/h (0 Bft) S-SO 157 2,1 C 0,0 km/h (0 Bft)
03.01.2016 12:35 4,1 C 6,4 C 89 % 1011,2 hPa 0,0 mm 0,0 km/h (0 Bft) O-SO 112 2,5 C 0,0 km/h (0 Bft)
03.01.2016 12:40 3,7 C 5,7 C 89 % 1011,2 hPa 0,0 mm 0,3 km/h (0 Bft) O-SO 112 2,1 C 2,6 km/h (1 Bft)
03.01.2016 12:45 3,4 C 5,2 C 89 % 1011,2 hPa 0,0 mm 0,8 km/h (0 Bft) O-SO 112 1,8 C 3,1 km/h (1 Bft)
03.01.2016 12:50 3,4 C 4,6 C 88 % 1011,2 hPa 0,0 mm 0,5 km/h (0 Bft) S-SO 157 1,6 C 0,0 km/h (0 Bft)
03.01.2016 12:55 3,3 C 4,4 C 88 % 1010,9 hPa 0,0 mm 0,3 km/h (0 Bft) S-SO 157 1,5 C 0,0 km/h (0 Bft)
03.01.2016 13:00 3,2 C 4,1 C 86 % 1010,9 hPa 0,0 mm 0,0 km/h (0 Bft) SO 135 1,1 C 0,0 km/h (0 Bft)
03.01.2016 13:05 3,2 C 4,0 C 86 % 1010,9 hPa 0,0 mm 1,0 km/h (0 Bft) SO 135 1,1 C 4,1 km/h (1 Bft)
03.01.2016 13:10 3,2 C 3,8 C 87 % 1010,9 hPa 0,0 mm 1,6 km/h (1 Bft) O-NO 67 1,2 C 0,0 km/h (0 Bft)
03.01.2016 13:15 3,1 C 3,7 C 87 % 1010,5 hPa 0,0 mm 1,0 km/h (0 Bft) O-SO 112 1,2 C 0,0 km/h (0 Bft)
03.01.2016 13:20 3,2 C 3,6 C 87 % 1010,5 hPa 0,0 mm 1,8 km/h (1 Bft) SO 135 1,2 C 2,8 km/h (1 Bft)
03.01.2016 13:25 3,2 C 3,7 C 87 % 1010,5 hPa 0,0 mm 2,3 km/h (1 Bft) O-NO 67 1,2 C 0,0 km/h (0 Bft)
03.01.2016 13:30 3,1 C 3,6 C 88 % 1010,5 hPa 0,0 mm 2,1 km/h (1 Bft) NO 45 1,3 C 2,6 km/h (1 Bft)
03.01.2016 13:35 3,0 C 3,5 C 88 % 1010,2 hPa 0,0 mm 2,6 km/h (1 Bft) O 90 1,2 C 4,1 km/h (1 Bft)
03.01.2016 13:40 2,8 C 3,2 C 89 % 1010,2 hPa 0,0 mm 1,3 km/h (1 Bft) SO 135 1,2 C 0,0 km/h (0 Bft)
03.01.2016 13:45 2,7 C 3,0 C 89 % 1010,2 hPa 0,0 mm 0,3 km/h (0 Bft) SO 135 1,1 C 0,0 km/h (0 Bft)
03.01.2016 13:50 2,7 C 2,9 C 89 % 1010,2 hPa 0,0 mm 0,8 km/h (0 Bft) O-SO 112 1,1 C 0,0 km/h (0 Bft)
03.01.2016 13:55 2,8 C 3,2 C 89 % 1010,0 hPa 0,0 mm 0,8 km/h (0 Bft) O 90 1,2 C 2,6 km/h (1 Bft)
03.01.2016 14:00 2,9 C 4,8 C 89 % 1010,0 hPa 0,0 mm 0,0 km/h (0 Bft) O-SO 112 1,3 C 0,0 km/h (0 Bft)
03.01.2016 14:05 3,1 C 5,9 C 89 % 1010,0 hPa 0,0 mm 0,0 km/h (0 Bft) O 90 1,5 C 0,0 km/h (0 Bft)
03.01.2016 14:10 2,9 C 6,1 C 89 % 1010,0 hPa 0,0 mm 0,0 km/h (0 Bft) O-NO 67 1,3 C 0,0 km/h (0 Bft)
03.01.2016 14:15 2,8 C 5,5 C 89 % 1009,8 hPa 0,0 mm 0,0 km/h (0 Bft) S-SO 157 1,2 C 0,0 km/h (0 Bft)
03.01.2016 14:20 2,7 C 4,5 C 89 % 1009,8 hPa 0,0 mm 0,0 km/h (0 Bft) SO 135 1,1 C 0,0 km/h (0 Bft)
03.01.2016 14:25 2,7 C 3,9 C 89 % 1009,8 hPa 0,0 mm 0,3 km/h (0 Bft) O-SO 112 1,1 C 3,9 km/h (1 Bft)
03.01.2016 14:30 2,7 C 3,3 C 89 % 1009,8 hPa 0,0 mm 0,8 km/h (0 Bft) SO 135 1,1 C 0,0 km/h (0 Bft)
03.01.2016 14:35 2,7 C 3,2 C 89 % 1009,6 hPa 0,0 mm 0,8 km/h (0 Bft) O-SO 112 1,1 C 0,0 km/h (0 Bft)
03.01.2016 14:40 2,8 C 3,3 C 90 % 1009,6 hPa 0,0 mm 0,0 km/h (0 Bft) O-SO 112 1,3 C 0,0 km/h (0 Bft)
03.01.2016 14:45 2,7 C 3,4 C 90 % 1009,6 hPa 0,0 mm 0,0 km/h (0 Bft) O 90 1,2 C 0,0 km/h (0 Bft)
03.01.2016 14:50 2,7 C 3,2 C 90 % 1009,6 hPa 0,0 mm 0,8 km/h (0 Bft) O-SO 112 1,2 C 0,0 km/h (0 Bft)
03.01.2016 14:55 2,5 C 2,9 C 91 % 1009,4 hPa 0,0 mm 1,0 km/h (0 Bft) O-SO 112 1,2 C 0,0 km/h (0 Bft)
03.01.2016 15:00 2,3 C 2,4 C 91 % 1009,4 hPa 0,0 mm 0,3 km/h (0 Bft) O 90 1,0 C 0,0 km/h (0 Bft)
03.01.2016 15:05 2,2 C 2,2 C 91 % 1009,4 hPa 0,0 mm 0,3 km/h (0 Bft) O-SO 112 0,9 C 0,0 km/h (0 Bft)
03.01.2016 15:10 2,1 C 2,0 C 91 % 1009,4 hPa 0,0 mm 0,3 km/h (0 Bft) S 180 0,8 C 0,0 km/h (0 Bft)
03.01.2016 15:15 2,0 C 1,9 C 91 % 1008,9 hPa 0,0 mm 0,0 km/h (0 Bft) SO 135 0,7 C 0,0 km/h (0 Bft)
03.01.2016 15:20 1,8 C 1,7 C 91 % 1008,9 hPa 0,0 mm 0,3 km/h (0 Bft) SO 135 0,5 C 0,0 km/h (0 Bft)
03.01.2016 15:25 1,9 C 1,8 C 91 % 1008,9 hPa 0,0 mm 0,3 km/h (0 Bft) SO 135 0,6 C 0,0 km/h (0 Bft)
03.01.2016 15:30 2,0 C 1,8 C 91 % 1008,9 hPa 0,0 mm 0,0 km/h (0 Bft) SO 135 0,7 C 0,0 km/h (0 Bft)
03.01.2016 15:35 1,9 C 1,7 C 91 % 1008,9 hPa 0,0 mm 0,0 km/h (0 Bft) SO 135 0,6 C 0,0 km/h (0 Bft)
03.01.2016 15:40 1,9 C 1,7 C 92 % 1008,9 hPa 0,0 mm 0,0 km/h (0 Bft) O-SO 112 0,7 C 0,0 km/h (0 Bft)
03.01.2016 15:45 1,8 C 1,6 C 92 % 1008,9 hPa 0,0 mm 0,0 km/h (0 Bft) O-SO 112 0,6 C 0,0 km/h (0 Bft)
03.01.2016 15:50 1,8 C 1,5 C 92 % 1008,9 hPa 0,0 mm 0,0 km/h (0 Bft) S-SO 157 0,6 C 0,0 km/h (0 Bft)
03.01.2016 15:55 1,8 C 1,5 C 92 % 1008,3 hPa 0,0 mm 0,0 km/h (0 Bft) S 180 0,6 C 0,0 km/h (0 Bft)
03.01.2016 16:00 1,7 C 1,3 C 92 % 1008,3 hPa 0,0 mm 0,0 km/h (0 Bft) SO 135 0,5 C 0,0 km/h (0 Bft)
03.01.2016 16:05 1,5 C 1,1 C 92 % 1008,3 hPa 0,0 mm 0,0 km/h (0 Bft) W-SW 247 0,3 C 0,0 km/h (0 Bft)
03.01.2016 16:10 1,5 C 1,1 C 92 % 1008,3 hPa 0,0 mm 0,3 km/h (0 Bft) SO 135 0,3 C 0,0 km/h (0 Bft)
03.01.2016 16:15 1,4 C 1,0 C 92 % 1008,2 hPa 0,0 mm 0,3 km/h (0 Bft) SO 135 0,2 C 0,0 km/h (0 Bft)
03.01.2016 16:20 1,2 C 0,8 C 92 % 1008,2 hPa 0,0 mm 0,0 km/h (0 Bft) S-SO 157 0,0 C 0,0 km/h (0 Bft)
03.01.2016 16:25 1,1 C 0,7 C 88 % 1008,2 hPa 0,0 mm 0,0 km/h (0 Bft) SO 135 -0,7 C 0,0 km/h (0 Bft)
03.01.2016 16:30 1,1 C 0,6 C 92 % 1008,2 hPa 0,0 mm 0,0 km/h (0 Bft) SO 135 -0,1 C 0,0 km/h (0 Bft)
03.01.2016 16:35 1,0 C 0,6 C 93 % 1008,1 hPa 0,0 mm 0,0 km/h (0 Bft) O-SO 112 -0,0 C 0,0 km/h (0 Bft)
03.01.2016 16:40 0,8 C 0,4 C 93 % 1008,1 hPa 0,0 mm 0,0 km/h (0 Bft) SW 225 -0,2 C 0,0 km/h (0 Bft)
03.01.2016 16:45 0,8 C 0,3 C 93 % 1008,1 hPa 0,0 mm 0,0 km/h (0 Bft) O-SO 112 -0,2 C 0,0 km/h (0 Bft)
03.01.2016 16:50 0,1 C -0,2 C 92 % 1008,1 hPa 0,0 mm 0,0 km/h (0 Bft) NW 315 -1,0 C 0,0 km/h (0 Bft)
03.01.2016 16:55 0,0 C -0,4 C 92 % 1007,8 hPa 0,0 mm 0,0 km/h (0 Bft) W-NW 292 -1,1 C 0,0 km/h (0 Bft)
03.01.2016 17:00 0,4 C -0,1 C 92 % 1007,8 hPa 0,0 mm 0,0 km/h (0 Bft) S-SO 157 -0,7 C 0,0 km/h (0 Bft)
03.01.2016 17:05 0,6 C 0,1 C 93 % 1007,8 hPa 0,0 mm 0,0 km/h (0 Bft) S-SO 157 -0,4 C 0,0 km/h (0 Bft)
03.01.2016 17:10 0,5 C 0,1 C 93 % 1007,8 hPa 0,0 mm 0,0 km/h (0 Bft) O-SO 112 -0,5 C 0,0 km/h (0 Bft)
03.01.2016 17:15 0,7 C 0,3 C 93 % 1007,5 hPa 0,0 mm 0,0 km/h (0 Bft) S-SO 157 -0,3 C 0,0 km/h (0 Bft)
03.01.2016 17:20 1,0 C 0,8 C 88 % 1007,5 hPa 0,0 mm 0,0 km/h (0 Bft) SO 135 -0,8 C 0,0 km/h (0 Bft)
03.01.2016 17:25 1,1 C 0,8 C 93 % 1007,5 hPa 0,0 mm 0,0 km/h (0 Bft) S-SO 157 0,1 C 0,0 km/h (0 Bft)
03.01.2016 17:30 1,0 C 0,7 C 93 % 1007,5 hPa 0,0 mm 0,0 km/h (0 Bft) O-SO 112 -0,0 C 0,0 km/h (0 Bft)
03.01.2016 17:35 1,0 C 0,7 C 93 % 1007,2 hPa 0,0 mm 0,3 km/h (0 Bft) O-SO 112 -0,0 C 0,0 km/h (0 Bft)
03.01.2016 17:40 0,8 C 0,5 C 93 % 1007,2 hPa 0,0 mm 0,3 km/h (0 Bft) O 90 -0,2 C 3,6 km/h (1 Bft)
03.01.2016 17:45 0,7 C 0,4 C 93 % 1007,2 hPa 0,0 mm 0,3 km/h (0 Bft) S-SO 157 -0,3 C 0,0 km/h (0 Bft)
03.01.2016 17:50 0,6 C 0,2 C 93 % 1007,2 hPa 0,0 mm 0,8 km/h (0 Bft) SO 135 -0,4 C 0,0 km/h (0 Bft)
03.01.2016 17:55 0,5 C 0,1 C 93 % 1006,7 hPa 0,0 mm 0,5 km/h (0 Bft) S-SO 157 -0,5 C 0,0 km/h (0 Bft)
03.01.2016 18:00 0,5 C 0,0 C 93 % 1006,7 hPa 0,0 mm 0,0 km/h (0 Bft) S 180 -0,5 C 0,0 km/h (0 Bft)
03.01.2016 18:05 0,5 C 0,0 C 93 % 1006,7 hPa 0,0 mm 0,3 km/h (0 Bft) S-SO 157 -0,5 C 0,0 km/h (0 Bft)
03.01.2016 18:10 0,4 C -0,1 C 94 % 1006,7 hPa 0,0 mm 0,3 km/h (0 Bft) O-SO 112 -0,5 C 0,0 km/h (0 Bft)
03.01.2016 18:15 0,1 C -0,3 C 93 % 1006,1 hPa 0,0 mm 0,0 km/h (0 Bft) O-NO 67 -0,9 C 0,0 km/h (0 Bft)
03.01.2016 18:20 0,1 C -0,3 C 93 % 1006,1 hPa 0,0 mm 0,5 km/h (0 Bft) SO 135 -0,9 C 0,0 km/h (0 Bft)
03.01.2016 18:25 0,0 C -0,4 C 93 % 1006,1 hPa 0,0 mm 0,5 km/h (0 Bft) SW 225 -1,0 C 0,0 km/h (0 Bft)
03.01.2016 18:30 0,2 C -0,3 C 93 % 1006,1 hPa 0,0 mm 0,0 km/h (0 Bft) SO 135 -0,8 C 0,0 km/h (0 Bft)
03.01.2016 18:35 0,1 C -0,4 C 93 % 1006,0 hPa 0,0 mm 0,0 km/h (0 Bft) S 180 -0,9 C 0,0 km/h (0 Bft)
03.01.2016 18:40 -0,5 C -0,9 C 93 % 1006,0 hPa 0,0 mm 0,0 km/h (0 Bft) SO 135 -1,5 C 0,0 km/h (0 Bft)
03.01.2016 18:45 -0,9 C -1,2 C 93 % 1006,0 hPa 0,0 mm 0,0 km/h (0 Bft) SO 135 -1,9 C 0,0 km/h (0 Bft)
03.01.2016 18:50 -1,0 C -1,4 C 93 % 1006,0 hPa 0,0 mm 0,0 km/h (0 Bft) N-NO 22 -2,0 C 0,0 km/h (0 Bft)
03.01.2016 18:55 -1,1 C -1,5 C 93 % 1005,5 hPa 0,0 mm 0,0 km/h (0 Bft) W 270 -2,1 C 0,0 km/h (0 Bft)
03.01.2016 19:00 -0,9 C -1,4 C 93 % 1005,5 hPa 0,0 mm 0,0 km/h (0 Bft) W-SW 247 -1,9 C 0,0 km/h (0 Bft)
03.01.2016 19:05 -1,3 C -1,7 C 93 % 1005,5 hPa 0,0 mm 0,0 km/h (0 Bft) NW 315 -2,3 C 0,0 km/h (0 Bft)
03.01.2016 19:10 -1,0 C -1,5 C 93 % 1005,5 hPa 0,0 mm 0,0 km/h (0 Bft) SO 135 -2,0 C 0,0 km/h (0 Bft)
03.01.2016 19:15 -0,9 C -1,3 C 88 % 1004,9 hPa 0,0 mm 0,0 km/h (0 Bft) S-SO 157 -2,6 C 0,0 km/h (0 Bft)
03.01.2016 19:20 -1,4 C -1,7 C 93 % 1004,9 hPa 0,0 mm 0,0 km/h (0 Bft) O-SO 112 -2,4 C 0,0 km/h (0 Bft)
03.01.2016 19:25 -1,6 C -2,0 C 93 % 1004,9 hPa 0,0 mm 0,0 km/h (0 Bft) O 90 -2,6 C 0,0 km/h (0 Bft)
03.01.2016 19:30 -1,7 C -2,1 C 93 % 1004,9 hPa 0,0 mm 0,0 km/h (0 Bft) W 270 -2,7 C 0,0 km/h (0 Bft)
03.01.2016 19:35 -1,7 C -2,1 C 93 % 1004,6 hPa 0,0 mm 0,0 km/h (0 Bft) W 270 -2,7 C 0,0 km/h (0 Bft)
03.01.2016 19:40 -1,6 C -2,0 C 93 % 1004,6 hPa 0,0 mm 0,0 km/h (0 Bft) W 270 -2,6 C 0,0 km/h (0 Bft)
03.01.2016 19:45 -1,5 C -1,9 C 88 % 1004,6 hPa 0,0 mm 0,0 km/h (0 Bft) S 180 -3,2 C 0,0 km/h (0 Bft)
03.01.2016 19:50 -1,7 C -2,0 C 93 % 1004,6 hPa 0,0 mm 0,0 km/h (0 Bft) N-NO 22 -2,7 C 0,0 km/h (0 Bft)
03.01.2016 19:55 -1,8 C -1,9 C 93 % 1004,3 hPa 0,0 mm 0,0 km/h (0 Bft) N-NW 337 -2,8 C 0,0 km/h (0 Bft)
03.01.2016 20:00 -1,7 C -1,9 C 93 % 1004,3 hPa 0,0 mm 0,0 km/h (0 Bft) W-SW 247 -2,7 C 0,0 km/h (0 Bft)
03.01.2016 20:05 -1,7 C -1,9 C 93 % 1004,3 hPa 0,0 mm 0,0 km/h (0 Bft) W-SW 247 -2,7 C 0,0 km/h (0 Bft)
03.01.2016 20:10 -1,8 C -2,0 C 93 % 1004,3 hPa 0,0 mm 0,0 km/h (0 Bft) W-SW 247 -2,8 C 0,0 km/h (0 Bft)
03.01.2016 20:15 -1,7 C -2,0 C 93 % 1003,7 hPa 0,0 mm 0,0 km/h (0 Bft) W-SW 247 -2,7 C 0,0 km/h (0 Bft)
03.01.2016 20:20 -1,7 C -1,9 C 93 % 1003,7 hPa 0,0 mm 0,0 km/h (0 Bft) W 270 -2,7 C 0,0 km/h (0 Bft)
03.01.2016 20:25 -1,7 C -1,8 C 88 % 1003,7 hPa 0,0 mm 0,0 km/h (0 Bft) SO 135 -3,4 C 0,0 km/h (0 Bft)
03.01.2016 20:30 -1,5 C -1,6 C 88 % 1003,7 hPa 0,0 mm 0,0 km/h (0 Bft) O-SO 112 -3,2 C 0,0 km/h (0 Bft)
03.01.2016 20:35 -1,4 C -1,6 C 88 % 1003,1 hPa 0,0 mm 0,0 km/h (0 Bft) SO 135 -3,1 C 0,0 km/h (0 Bft)
03.01.2016 20:40 -1,4 C -1,6 C 93 % 1003,1 hPa 0,0 mm 0,0 km/h (0 Bft) O 90 -2,4 C 0,0 km/h (0 Bft)
03.01.2016 20:45 -1,4 C -1,5 C 88 % 1003,1 hPa 0,0 mm 0,0 km/h (0 Bft) O-SO 112 -3,1 C 0,0 km/h (0 Bft)
03.01.2016 20:50 -1,1 C -1,2 C 88 % 1003,1 hPa 0,0 mm 0,3 km/h (0 Bft) O-NO 67 -2,8 C 0,0 km/h (0 Bft)
03.01.2016 20:55 -1,1 C -1,1 C 88 % 1002,7 hPa 0,0 mm 0,3 km/h (0 Bft) O 90 -2,8 C 0,0 km/h (0 Bft)
03.01.2016 21:00 -1,0 C -1,1 C 88 % 1002,7 hPa 0,0 mm 0,0 km/h (0 Bft) O-NO 67 -2,7 C 0,0 km/h (0 Bft)
03.01.2016 21:05 -1,0 C -1,1 C 89 % 1002,7 hPa 0,0 mm 0,0 km/h (0 Bft) O-SO 112 -2,6 C 0,0 km/h (0 Bft)
03.01.2016 21:10 -0,9 C -1,1 C 94 % 1002,7 hPa 0,0 mm 1,3 km/h (1 Bft) NO 45 -1,7 C 4,1 km/h (1 Bft)
03.01.2016 21:15 -0,9 C -1,1 C 94 % 1002,2 hPa 0,0 mm 1,8 km/h (1 Bft) O-NO 67 -1,7 C 4,4 km/h (1 Bft)
03.01.2016 21:20 -0,9 C -1,0 C 89 % 1002,2 hPa 0,0 mm 1,6 km/h (1 Bft) O-NO 67 -2,5 C 0,0 km/h (0 Bft)
03.01.2016 21:25 -0,8 C -1,0 C 94 % 1002,2 hPa 0,0 mm 1,6 km/h (1 Bft) O-NO 67 -1,6 C 3,4 km/h (1 Bft)
03.01.2016 21:30 -0,8 C -0,8 C 89 % 1002,2 hPa 0,0 mm 1,8 km/h (1 Bft) N-NO 22 -2,4 C 5,4 km/h (1 Bft)
03.01.2016 21:35 -0,6 C -0,8 C 94 % 1001,7 hPa 0,0 mm 2,8 km/h (1 Bft) NO 45 -1,4 C 0,0 km/h (0 Bft)
03.01.2016 21:40 -0,6 C -0,8 C 94 % 1001,7 hPa 0,0 mm 2,8 km/h (1 Bft) O 90 -1,4 C 0,0 km/h (0 Bft)
03.01.2016 21:45 -0,6 C -0,8 C 94 % 1001,7 hPa 0,0 mm 1,8 km/h (1 Bft) O-NO 67 -1,4 C 2,6 km/h (1 Bft)
03.01.2016 21:50 -0,6 C -0,8 C 94 % 1001,7 hPa 0,0 mm 1,6 km/h (1 Bft) O-NO 67 -1,4 C 4,9 km/h (1 Bft)
03.01.2016 21:55 -0,6 C -0,8 C 94 % 1001,2 hPa 0,0 mm 2,6 km/h (1 Bft) O-NO 67 -1,4 C 2,8 km/h (1 Bft)
03.01.2016 22:00 -0,5 C -0,7 C 94 % 1001,2 hPa 0,0 mm 3,4 km/h (1 Bft) O-NO 67 -1,3 C 3,6 km/h (1 Bft)
03.01.2016 22:05 -0,5 C -0,7 C 94 % 1001,2 hPa 0,0 mm 2,1 km/h (1 Bft) N 360 -1,3 C 0,0 km/h (0 Bft)
03.01.2016 22:10 -0,5 C -0,7 C 94 % 1001,2 hPa 0,0 mm 1,0 km/h (0 Bft) NO 45 -1,3 C 0,0 km/h (0 Bft)
03.01.2016 22:15 -0,5 C -0,7 C 94 % 1001,0 hPa 0,0 mm 0,5 km/h (0 Bft) O 90 -1,3 C 0,0 km/h (0 Bft)
03.01.2016 22:20 -0,5 C -0,7 C 94 % 1001,0 hPa 0,0 mm 0,5 km/h (0 Bft) N-NO 22 -1,3 C 0,0 km/h (0 Bft)
03.01.2016 22:25 -0,5 C -0,7 C 94 % 1001,0 hPa 0,0 mm 0,3 km/h (0 Bft) NO 45 -1,3 C 0,0 km/h (0 Bft)
03.01.2016 22:30 -0,5 C -0,7 C 94 % 1001,0 hPa 0,0 mm 0,3 km/h (0 Bft) N-NO 22 -1,3 C 0,0 km/h (0 Bft)
03.01.2016 22:35 -0,5 C -0,7 C 94 % 1000,8 hPa 0,0 mm 0,3 km/h (0 Bft) O-NO 67 -1,3 C 0,0 km/h (0 Bft)
03.01.2016 22:36 -0,5 C -0,7 C 94 % 1000,8 hPa 0,0 mm 0,3 km/h (0 Bft) O-NO 67 -1,3 C 0,0 km/h (0 Bft)
03.01.2016 22:40 -0,5 C -0,7 C 94 % 1000,8 hPa 0,0 mm 0,0 km/h (0 Bft) NW 315 -1,3 C 0,0 km/h (0 Bft)
03.01.2016 22:45 -0,5 C -0,7 C 94 % 1000,8 hPa 0,0 mm 0,3 km/h (0 Bft) N 360 -1,3 C 0,0 km/h (0 Bft)
03.01.2016 22:50 -0,5 C -0,7 C 94 % 1000,8 hPa 0,0 mm 0,5 km/h (0 Bft) W 270 -1,3 C 2,6 km/h (1 Bft)
03.01.2016 22:55 -0,5 C -0,7 C 94 % 1001,0 hPa 0,0 mm 0,3 km/h (0 Bft) W-NW 292 -1,3 C 0,0 km/h (0 Bft)
03.01.2016 23:00 -0,5 C -0,7 C 94 % 1001,0 hPa 0,0 mm 0,3 km/h (0 Bft) W-NW 292 -1,3 C 0,0 km/h (0 Bft)
03.01.2016 23:05 -0,5 C -0,7 C 94 % 1001,0 hPa 0,0 mm 0,8 km/h (0 Bft) W 270 -1,3 C 4,9 km/h (1 Bft)
03.01.2016 23:10 -0,5 C -0,7 C 94 % 1001,0 hPa 0,0 mm 0,8 km/h (0 Bft) NW 315 -1,3 C 0,0 km/h (0 Bft)
03.01.2016 23:15 -0,5 C -0,7 C 94 % 1000,9 hPa 0,0 mm 1,3 km/h (1 Bft) W 270 -1,3 C 4,1 km/h (1 Bft)
03.01.2016 23:20 -0,5 C -0,7 C 94 % 1000,9 hPa 0,0 mm 2,1 km/h (1 Bft) W 270 -1,3 C 4,9 km/h (1 Bft)
03.01.2016 23:25 -0,5 C -0,7 C 94 % 1000,9 hPa 0,0 mm 3,1 km/h (1 Bft) W-NW 292 -1,3 C 2,6 km/h (1 Bft)
03.01.2016 23:30 -0,6 C -0,7 C 89 % 1000,9 hPa 0,0 mm 3,4 km/h (1 Bft) W 270 -2,2 C 0,0 km/h (0 Bft)
03.01.2016 23:35 -0,6 C -0,8 C 94 % 1000,5 hPa 0,0 mm 2,1 km/h (1 Bft) W-NW 292 -1,4 C 3,6 km/h (1 Bft)
03.01.2016 23:40 -0,6 C -0,8 C 94 % 1000,5 hPa 0,0 mm 0,8 km/h (0 Bft) W-SW 247 -1,4 C 0,0 km/h (0 Bft)
03.01.2016 23:45 -0,6 C -0,8 C 94 % 1000,5 hPa 0,0 mm 1,3 km/h (1 Bft) W-SW 247 -1,4 C 0,0 km/h (0 Bft)
03.01.2016 23:50 -0,6 C -0,8 C 94 % 1000,5 hPa 0,0 mm 1,3 km/h (1 Bft) W 270 -1,4 C 2,8 km/h (1 Bft)
03.01.2016 23:55 -0,6 C -0,8 C 94 % 1000,3 hPa 0,0 mm 0,8 km/h (0 Bft) NW 315 -1,4 C 0,0 km/h (0 Bft)
_ Min-Zeit 20:10 19:35 13:05 23:55 - 22:40 - - 20:25 23:55
Minimum _ -1,8 C -2,1 C 86 % 1000,3 hPa - 0,0 km/h (0 Bft) - - -3,4 C 0,0 km/h (0 Bft)
_ Max-Zeit 12:25 12:35 01:55 00:10 10:10 03:30 - - 12:35 02:20
Maximum _ 4,4 C 6,4 C 96 % 1014,8 hPa 0,7 mm 9,3 km/h
SW (2 Bft)
- - 2,5 C 23,6 km/h
W (4 Bft)
Durchschnitt _ 1,0 C 0,9 C 93 % 1010,1 hPa #11,7 mm 2,7 km/h (1 Bft) W-SW - -0,0 C 3,4 km/h (1 Bft)